Owen Roberts, Cayman Islands

4:22 AM EST on December 18, 2017 (GMT -0500)
Roberts International

Weather History for MWCR - October, 2013

Change the Weather History Date:

Tuesday, October 1, 2013

  Actual Average Record
Temperature  
Mean Temperature 80 °F -  
Max Temperature 84 °F 85 °F 91 °F (1998)
Min Temperature 75 °F 77 °F 44 °F (2000)
Cooling Degree Days 14    
Growing Degree Days 30 (Base 50)    
Moisture  
Dew Point 76 °F    
Average Humidity 86    
Maximum Humidity 94    
Minimum Humidity 75    
Precipitation  
Precipitation 0.16 in - - ()
Sea Level Pressure  
Sea Level Pressure 29.90 in    
Wind  
Wind Speed 7 mph ()    
Max Wind Speed 13 mph    
Max Gust Speed 26 mph    
Visibility 6.0 miles    
Events Rain    
Averages and records for this station are not official NWS values.
T = Trace of Precipitation, MM = Missing Value Source: Averaged Metar Reports

Daily Weather History Graph

Daily Weather History Graph

Search for Another Location

Airport or City:

Trip Planner

Search our weather history database for the weather conditions in past years. The results will help you decide how hot, cold, wet, or windy it might be!

Date:

Astronomy

Oct. 01, 2013 Rise Set
Actual Time 6:16 AM EST 6:13 PM EST
Civil Twilight 5:54 AM EST 6:35 PM EST
Nautical Twilight 5:28 AM EST 7:00 PM EST
Astronomical Twilight 5:03 AM EST 7:26 PM EST
Moon 3:12 AM EST (10/1) 3:56 PM EST (10/1)
Length of Visible Light 12h 41m
Length of Day
11h 57m
Waning Crescent, 12% of the Moon is Illuminated
Oct 1
Waning Crescent
Oct 4
New
Oct 11
First Quarter
Oct 18
Full
Oct 26
Last Quarter

Hourly Weather History & Observations

Time (EST) Temp. Heat Index Dew Point Humidity Pressure Visibility Wind Dir Wind Speed Gust Speed Precip Events Conditions
6:00 AM 78.8 °F - 73.4 °F 83% 29.89 in 6.2 mi East 4.6 mph - N/A   Scattered Clouds
7:00 AM 78 °F - 75 °F 87% 29.91 in 6 mi ESE 5.8 mph - -   Partly Cloudy
7:00 AM 78.8 °F - 75.2 °F 89% 29.89 in 6.2 mi ESE 5.8 mph - N/A   Scattered Clouds
8:00 AM 80.6 °F 87.1 °F 77.0 °F 89% 29.92 in 6.2 mi East 5.8 mph - N/A   Scattered Clouds
9:00 AM 82.4 °F 90.9 °F 77.0 °F 84% 29.92 in 6.2 mi SE 5.8 mph - N/A   Scattered Clouds
10:00 AM 84.2 °F 94.1 °F 77.0 °F 79% 29.95 in 6.2 mi SE 6.9 mph - N/A   Mostly Cloudy
11:00 AM 80.6 °F 87.1 °F 77.0 °F 89% 29.95 in 6.2 mi ESE 9.2 mph - N/A   Scattered Clouds
12:00 PM 78.8 °F - 77.0 °F 94% 29.92 in 6.2 mi ESE 10.4 mph - N/A Rain Light Rain Showers
1:00 PM 80 °F - 78 °F 93% 29.92 in 5 mi ESE 11.5 mph - - Rain Light Rain Showers
1:00 PM 80.6 °F 88.1 °F 78.8 °F 94% 29.92 in 5.0 mi ESE 11.5 mph - N/A Rain Light Rain Showers
2:00 PM 78.8 °F - 75.2 °F 89% 29.89 in 5.0 mi SE 12.7 mph 26.5 mph N/A Rain Light Rain Showers
2:54 PM 78.8 °F - 75.2 °F 89% 29.86 in 6.2 mi North - - N/A Rain Light Rain
3:51 PM 80.6 °F 87.1 °F 77.0 °F 89% 29.86 in 6.2 mi SE 10.4 mph - N/A Rain Light Rain Showers
5:00 PM 80.6 °F 86.2 °F 75.2 °F 84% 29.86 in 6.2 mi SE 12.7 mph - N/A   Partly Cloudy
5:55 PM 82.4 °F 90.9 °F 77.0 °F 84% 29.86 in 6.2 mi SE 12.7 mph - N/A   Partly Cloudy
6:57 PM 82.4 °F 89.5 °F 75.2 °F 79% 29.86 in 6.2 mi SE 10.4 mph - N/A   Partly Cloudy
7:00 PM 82 °F - 75 °F 75% 29.88 in 6 mi SE 10.4 mph - -   Partly Cloudy
8:00 PM 82.4 °F 89.5 °F 75.2 °F 79% 29.89 in 6.2 mi SE 10.4 mph - N/A   Partly Cloudy
8:57 PM 82.4 °F 89.5 °F 75.2 °F 79% 29.92 in 6.2 mi SSE 9.2 mph - N/A   Partly Cloudy
9:50 PM 82.4 °F 90.9 °F 77.0 °F 84% 29.92 in 6.2 mi SE 12.7 mph - N/A   Partly Cloudy